PILOTS ONLINE: 325    ATC ONLINE: 69

PANT

Annette Island Airport

Location

IATA ANN
City Annette
Country  United States
Latitude 55° 2' 32" N
Longitude 131° 34' 19" W
Elevation 119 ft
Type Medium Airport

Map

Weather

METAR
2014/09/17 01:00
PANT 170100Z AUTO 23003KT 10SM FEW004 BKN250 13/12 A2984 RMK AO2 T01330122
TAF
No TAF available

Runways

02/20 5709 ft / 150 ft
12/30 7493 ft / 150 ft

Outbound flights

Callsign Flying to Pilot ATD/STD ETA Aircraft

Inbound flights

Callsign Flying from Pilot ATD ETA Aircraft